User: anonymous   Login
Location: Campillo
(40.8621°N, 4.2488°W)
Time: 17:22:32
(UTC+00:00)
Language:

Cosmos 2082 Rocket - Orbit

View from above orbital plane
View from above orbital plane
View from above satellite
View from above satellite

Ground track
Ground track

The orbit data is extracted from the following two-line orbital elements,

1 20625U 90046B   21215.74054991 -.00000258  00000-0 -10919-3 0  9994
2 20625  70.9973 222.8127 0015684 327.4259  32.5894 14.14672892610925
Epoch (UTC): 03 August 2021 17:46:23
Eccentricity: 0.0015684
inclination: 70.9973°
perigee height: 832 km
apogee height: 855 km
right ascension of ascending node: 222.8127°
argument of perigee: 327.4259°
revolutions per day: 14.14672892
mean anomaly at epoch: 32.5894°
orbit number at epoch: 61092

The dashed part of the orbit path shows where the satellite is in the earth's shadow,  

DLR